Grosse Ile, MI

10:51 PM EDT on August 27, 2016 (GMT -0400)
Grosse Ile Municipal

Weather History for KONZ - November, 2013

Change the Weather History Date:

Friday, November 8, 2013

  Actual Average (KDTW) Record (KDTW)
Temperature  
Mean Temperature 40 °F 45 °F  
Max Temperature 46 °F 53 °F 71 °F (1915)
Min Temperature 33 °F 37 °F 14 °F (1991)
Degree Days  
Heating Degree Days 26 20  
Month to date heating degree days 153  
Since 1 July heating degree days 664  
Cooling Degree Days 0 0  
Month to date cooling degree days 0  
Year to date cooling degree days 803  
Moisture  
Dew Point 28 °F    
Average Humidity 66    
Maximum Humidity 87    
Minimum Humidity 39    
Precipitation  
Precipitation 0.00 in 0.09 in 1.57 in (1877)
Month to date precipitation 0.72  
Year to date precipitation 28.94  
Snow  
Snow 0.00 in 0.00 in 0.90 in (1921)
Month to date snowfall 0.1  
Since 1 July snowfall 0.2  
Since 1 September snowfall 0.2  
Snow Depth -    
Sea Level Pressure  
Sea Level Pressure 30.21 in    
Wind  
Wind Speed 8 mph (WSW)    
Max Wind Speed 13 mph    
Max Gust Speed -    
Visibility 10 miles    
Events      
T = Trace of Precipitation, MM = Missing Value Source: NWS Daily Summary

Daily Weather History Graph

Daily Weather History Graph

Search for Another Location

Airport or City:

Trip Planner

Search our weather history database for the weather conditions in past years. The results will help you decide how hot, cold, wet, or windy it might be!

Date:

Astronomy

Nov. 08, 2013 Rise Set
Actual Time 7:14 AM EST 5:17 PM EST
Civil Twilight 6:44 AM EST 5:47 PM EST
Nautical Twilight 6:11 AM EST 6:20 PM EST
Astronomical Twilight 5:38 AM EST 6:53 PM EST
Moon 12:09 PM EST (11/8) 10:37 PM EST (11/8)
Length of Visible Light 11h 02m
Length of Day
10h 03m
Waxing Crescent, 33% of the Moon is Illuminated
Nov 8
Waxing Crescent
Nov 10
First Quarter
Nov 17
Full
Nov 25
Last Quarter
Dec 2
New

Hourly Weather History & Observations

Time (EST) Temp. Windchill Dew Point Humidity Pressure Visibility Wind Dir Wind Speed Gust Speed Precip Events Conditions
12:14 AM 37.4 °F 30.8 °F 33.8 °F 87% 30.11 in 10.0 mi West 9.2 mph - N/A   Mostly Cloudy
12:33 AM 35.6 °F 29.2 °F 32.0 °F 87% 30.11 in 10.0 mi West 8.1 mph - N/A   Scattered Clouds
12:54 AM 35.6 °F 29.9 °F 32.0 °F 87% 30.11 in 10.0 mi West 6.9 mph - N/A   Clear
1:14 AM 35.6 °F 28.6 °F 32.0 °F 87% 30.12 in 10.0 mi West 9.2 mph - N/A   Clear
1:34 AM 35.6 °F 29.9 °F 30.2 °F 81% 30.12 in 10.0 mi West 6.9 mph - N/A   Clear
1:54 AM 35.6 °F 28.6 °F 30.2 °F 81% 30.12 in 10.0 mi West 9.2 mph - N/A   Clear
2:14 AM 35.6 °F 28.6 °F 30.2 °F 81% 30.13 in 10.0 mi West 9.2 mph - N/A   Scattered Clouds
2:34 AM 35.6 °F 28.6 °F 30.2 °F 81% 30.13 in 10.0 mi West 9.2 mph - N/A   Mostly Cloudy
2:54 AM 35.6 °F 29.2 °F 30.2 °F 81% 30.14 in 10.0 mi West 8.1 mph - N/A   Overcast
3:14 AM 35.6 °F 29.9 °F 28.4 °F 75% 30.14 in 10.0 mi West 6.9 mph - N/A   Overcast
3:34 AM 35.6 °F 30.7 °F 28.4 °F 75% 30.14 in 10.0 mi West 5.8 mph - N/A   Overcast
3:54 AM 35.6 °F 29.9 °F 28.4 °F 75% 30.15 in 10.0 mi West 6.9 mph - N/A   Overcast
4:14 AM 35.6 °F 29.9 °F 28.4 °F 75% 30.15 in 10.0 mi West 6.9 mph - N/A   Overcast
4:34 AM 35.6 °F 29.9 °F 28.4 °F 75% 30.16 in 10.0 mi West 6.9 mph - N/A   Overcast
4:54 AM 35.6 °F 29.9 °F 28.4 °F 75% 30.16 in 10.0 mi WNW 6.9 mph - N/A   Overcast
5:14 AM 35.6 °F 29.2 °F 28.4 °F 75% 30.16 in 10.0 mi West 8.1 mph - N/A   Overcast
5:34 AM 35.6 °F 29.9 °F 28.4 °F 75% 30.17 in 10.0 mi West 6.9 mph - N/A   Overcast
5:54 AM 33.8 °F 28.6 °F 28.4 °F 81% 30.18 in 10.0 mi West 5.8 mph - N/A   Scattered Clouds
6:14 AM 33.8 °F 27.7 °F 28.4 °F 81% 30.19 in 10.0 mi West 6.9 mph - N/A   Clear
6:34 AM 33.8 °F 28.6 °F 28.4 °F 81% 30.20 in 10.0 mi West 5.8 mph - N/A   Scattered Clouds
6:54 AM 33.8 °F 27.7 °F 28.4 °F 81% 30.21 in 10.0 mi West 6.9 mph - N/A   Scattered Clouds
7:14 AM 33.8 °F 27.7 °F 28.4 °F 81% 30.21 in 10.0 mi West 6.9 mph - N/A   Mostly Cloudy
7:34 AM 33.8 °F 27.7 °F 28.4 °F 81% 30.22 in 10.0 mi West 6.9 mph - N/A   Scattered Clouds
7:54 AM 33.8 °F 28.6 °F 30.2 °F 87% 30.23 in 10.0 mi West 5.8 mph - N/A   Clear
8:14 AM 35.6 °F 30.7 °F 30.2 °F 81% 30.24 in 10.0 mi West 5.8 mph - N/A   Clear
8:34 AM 35.6 °F 29.9 °F 30.2 °F 81% 30.25 in 10.0 mi West 6.9 mph - N/A   Clear
8:54 AM 37.4 °F 31.4 °F 30.2 °F 75% 30.26 in 10.0 mi West 8.1 mph - N/A   Clear
9:14 AM 37.4 °F 30.3 °F 30.2 °F 75% 30.26 in 10.0 mi West 10.4 mph - N/A   Clear
9:34 AM 39.2 °F 34.2 °F 30.2 °F 70% 30.26 in 10.0 mi West 6.9 mph - N/A   Clear
9:54 AM 39.2 °F 35.0 °F 30.2 °F 70% 30.26 in 10.0 mi WNW 5.8 mph - N/A   Scattered Clouds
10:14 AM 39.2 °F 35.0 °F 28.4 °F 65% 30.27 in 10.0 mi WNW 5.8 mph - N/A   Mostly Cloudy
10:34 AM 41.0 °F 35.2 °F 28.4 °F 61% 30.27 in 10.0 mi NW 9.2 mph - N/A   Overcast
10:54 AM 42.8 °F 37.5 °F 28.4 °F 57% 30.27 in 10.0 mi WNW 9.2 mph - N/A   Mostly Cloudy
11:14 AM 42.8 °F 38.6 °F 28.4 °F 57% 30.27 in 10.0 mi WNW 6.9 mph - N/A   Mostly Cloudy
11:34 AM 41.0 °F 35.8 °F 26.6 °F 57% 30.27 in 10.0 mi West 8.1 mph - N/A   Scattered Clouds
11:54 AM 42.8 °F 38.0 °F 26.6 °F 53% 30.27 in 10.0 mi West 8.1 mph - N/A   Mostly Cloudy
12:13 PM 42.8 °F 38.6 °F 26.6 °F 53% 30.26 in 10.0 mi WSW 6.9 mph - N/A   Overcast
12:34 PM 42.8 °F 38.6 °F 24.8 °F 49% 30.26 in 10.0 mi West 6.9 mph - N/A   Overcast
12:54 PM 42.8 °F 38.0 °F 24.8 °F 49% 30.26 in 10.0 mi West 8.1 mph - N/A   Overcast
1:14 PM 42.8 °F 38.0 °F 24.8 °F 49% 30.25 in 10.0 mi West 8.1 mph - N/A   Overcast
1:34 PM 44.6 °F 42.2 °F 23.0 °F 43% 30.25 in 10.0 mi West 4.6 mph - N/A   Overcast
1:54 PM 44.6 °F 40.7 °F 23.0 °F 43% 30.24 in 10.0 mi SW 6.9 mph - N/A   Overcast
2:14 PM 44.6 °F 40.2 °F 23.0 °F 43% 30.24 in 10.0 mi WNW 8.1 mph - N/A   Mostly Cloudy
2:34 PM 44.6 °F 40.7 °F 21.2 °F 39% 30.23 in 10.0 mi WSW 6.9 mph - N/A   Overcast
2:54 PM 44.6 °F 41.4 °F 21.2 °F 39% 30.23 in 10.0 mi SW 5.8 mph - N/A   Mostly Cloudy
3:14 PM 46.4 °F 42.9 °F 23.0 °F 40% 30.22 in 10.0 mi SW 6.9 mph - N/A   Scattered Clouds
3:34 PM 44.6 °F 40.7 °F 21.2 °F 39% 30.22 in 10.0 mi SW 6.9 mph - N/A   Scattered Clouds
3:54 PM 44.6 °F 42.2 °F 21.2 °F 39% 30.22 in 10.0 mi WSW 4.6 mph - N/A   Clear
4:14 PM 44.6 °F 40.7 °F 21.2 °F 39% 30.23 in 10.0 mi SW 6.9 mph - N/A   Clear
4:34 PM 44.6 °F 40.2 °F 21.2 °F 39% 30.23 in 10.0 mi WSW 8.1 mph - N/A   Clear
4:54 PM 42.8 °F 38.6 °F 24.8 °F 49% 30.23 in 10.0 mi SW 6.9 mph - N/A   Clear
5:14 PM 42.8 °F 38.0 °F 24.8 °F 49% 30.23 in 10.0 mi SW 8.1 mph - N/A   Clear
5:34 PM 41.0 °F 38.0 °F 24.8 °F 53% 30.23 in 10.0 mi SW 4.6 mph - N/A   Clear
5:53 PM 41.0 °F 38.0 °F 26.6 °F 57% 30.22 in 10.0 mi SSW 4.6 mph - N/A   Clear
6:14 PM 39.2 °F 35.9 °F 26.6 °F 61% 30.23 in 10.0 mi SSW 4.6 mph - N/A   Clear
6:34 PM 39.2 °F 35.0 °F 26.6 °F 61% 30.23 in 10.0 mi SSW 5.8 mph - N/A   Clear
6:54 PM 39.2 °F 35.9 °F 26.6 °F 61% 30.23 in 10.0 mi SSW 4.6 mph - N/A   Clear
7:14 PM 39.2 °F 35.9 °F 26.6 °F 61% 30.23 in 10.0 mi SSW 4.6 mph - N/A   Clear
7:34 PM 39.2 °F 35.0 °F 26.6 °F 61% 30.22 in 10.0 mi SSW 5.8 mph - N/A   Clear
7:54 PM 41.0 °F 37.1 °F 28.4 °F 61% 30.22 in 10.0 mi SSW 5.8 mph - N/A   Clear
8:14 PM 41.0 °F 37.1 °F 26.6 °F 57% 30.22 in 10.0 mi SSW 5.8 mph - N/A   Clear
8:34 PM 39.2 °F 34.2 °F 28.4 °F 65% 30.21 in 10.0 mi SSW 6.9 mph - N/A   Clear
8:54 PM 41.0 °F 36.4 °F 30.2 °F 65% 30.21 in 10.0 mi SSW 6.9 mph - N/A   Clear
9:14 PM 41.0 °F 35.8 °F 30.2 °F 65% 30.21 in 10.0 mi SSW 8.1 mph - N/A   Clear
9:34 PM 41.0 °F 35.8 °F 32.0 °F 70% 30.21 in 10.0 mi SSW 8.1 mph - N/A   Clear
9:54 PM 41.0 °F 35.2 °F 32.0 °F 70% 30.21 in 10.0 mi SSW 9.2 mph - N/A   Clear
10:14 PM 41.0 °F 35.8 °F 33.8 °F 76% 30.20 in 10.0 mi SSW 8.1 mph - N/A   Clear
10:34 PM 41.0 °F 37.1 °F 32.0 °F 70% 30.21 in 10.0 mi SSW 5.8 mph - N/A   Scattered Clouds
10:54 PM 42.8 °F 38.0 °F 33.8 °F 70% 30.20 in 10.0 mi SSW 8.1 mph - N/A   Mostly Cloudy
11:14 PM 42.8 °F 37.0 °F 33.8 °F 70% 30.19 in 10.0 mi SSW 10.4 mph - N/A   Overcast
11:34 PM 42.8 °F 37.0 °F 33.8 °F 70% 30.18 in 10.0 mi SSW 10.4 mph - N/A   Overcast
11:54 PM 42.8 °F 36.2 °F 33.8 °F 70% 30.18 in 10.0 mi SSW 12.7 mph - N/A   Mostly Cloudy